| time (UTC) | temp F | wind direction | speed MPH | gust MPH | rain 1hr in | rain 24hr in | rain mn in | humidity % | barometer mb |
| 20260906170106 | 74 | 148 | 7.0 | 13.0 | 0.00 | 0.00 | 0.00 | 86 | 1020.8 |
| 20260906164603 | 74 | 136 | 5.0 | 11.0 | 0.00 | 0.00 | 0.00 | 87 | 1020.9 |
| 20260906163109 | 73 | 125 | 7.0 | 11.0 | 0.00 | 0.00 | 0.00 | 87 | 1020.9 |
| 20260906161604 | 73 | 132 | 7.0 | 11.0 | 0.00 | 0.00 | 0.00 | 88 | 1021.1 |
| 20260906154606 | 72 | 146 | 5.0 | 10.0 | 0.00 | 0.00 | 0.00 | 89 | 1021.0 |
| 20260906153103 | 72 | 147 | 6.0 | 11.0 | 0.00 | 0.00 | 0.00 | 89 | 1021.0 |
| 20260906151604 | 71 | 127 | 6.0 | 11.0 | 0.00 | 0.00 | 0.00 | 90 | 1020.9 |
| 20260906150104 | 71 | 130 | 6.0 | 10.0 | 0.00 | 0.00 | 0.00 | 91 | 1020.9 |
| 20260906144608 | 70 | 80 | 3.0 | 8.0 | 0.00 | 0.00 | 0.00 | 93 | 1020.7 |
| 20260906143104 | 69 | 84 | 3.0 | 9.0 | 0.00 | 0.00 | 0.00 | 93 | 1020.7 |
| 20260906141613 | 69 | 116 | 8.0 | 13.0 | 0.00 | 0.00 | 0.00 | 94 | 1020.7 |
| 20260906134606 | 68 | 100 | 8.0 | 13.0 | 0.00 | 0.00 | 0.00 | 94 | 1020.5 |
| 20260906133110 | 68 | 84 | 9.0 | 14.0 | 0.00 | 0.00 | 0.00 | 94 | 1020.4 |
| 20260906131608 | 68 | 69 | 8.0 | 12.0 | 0.00 | 0.00 | 0.00 | 94 | 1020.3 |
| 20260906130110 | 68 | 92 | 5.0 | 12.0 | 0.00 | 0.00 | 0.00 | 94 | 1020.2 |
| 20260906124604 | 67 | 120 | 7.0 | 10.0 | 0.00 | 0.00 | 0.00 | 95 | 1020.2 |
| 20260906123107 | 67 | 94 | 4.0 | 9.0 | 0.00 | 0.00 | 0.00 | 95 | 1020.2 |
| 20260906121609 | 67 | 90 | 3.0 | 9.0 | 0.00 | 0.00 | 0.00 | 95 | 1020.1 |
| 20260906120105 | 67 | 79 | 4.0 | 10.0 | 0.00 | 0.00 | 0.00 | 95 | 1020.0 |
| 20260906114613 | 67 | 88 | 5.0 | 12.0 | 0.00 | 0.00 | 0.00 | 95 | 1019.8 |
| 20260906113101 | 67 | 96 | 6.0 | 12.0 | 0.00 | 0.00 | 0.00 | 95 | 1019.6 |
| 20260906111605 | 67 | 87 | 5.0 | 11.0 | 0.00 | 0.00 | 0.00 | 95 | 1019.6 |
| 20260906110105 | 68 | 92 | 6.0 | 10.0 | 0.00 | 0.00 | 0.00 | 95 | 1019.3 |
| 20260906104603 | 68 | 101 | 5.0 | 9.0 | 0.00 | 0.00 | 0.00 | 96 | 1019.4 |
| 20260906103105 | 67 | 107 | 5.0 | 9.0 | 0.00 | 0.00 | 0.00 | 97 | 1019.3 |
| 20260906101600 | 67 | 84 | 4.0 | 8.0 | 0.00 | 0.00 | 0.00 | 97 | 1019.0 |
| 20260906100056 | 67 | 82 | 5.0 | 10.0 | 0.00 | 0.00 | 0.00 | 97 | 1018.8 |
| 20260906094600 | 67 | 73 | 7.0 | 11.0 | 0.00 | 0.00 | 0.00 | 97 | 1018.4 |
| 20260906093106 | 67 | 87 | 5.0 | 9.0 | 0.00 | 0.00 | 0.00 | 97 | 1018.4 |
| 20260906091603 | 68 | 84 | 6.0 | 10.0 | 0.00 | 0.00 | 0.00 | 96 | 1018.3 |
| 20260906090108 | 68 | 90 | 6.0 | 10.0 | 0.00 | 0.00 | 0.00 | 96 | 1018.3 |
| 20260906084606 | 68 | 82 | 4.0 | 8.0 | 0.00 | 0.00 | 0.00 | 96 | 1018.1 |
| 20260906083103 | 69 | 77 | 4.0 | 10.0 | 0.00 | 0.00 | 0.00 | 96 | 1018.3 |
| 20260906081619 | 69 | 87 | 5.0 | 12.0 | 0.00 | 0.00 | 0.00 | 96 | 1018.2 |
| 20260906080107 | 69 | 111 | 6.0 | 10.0 | 0.00 | 0.00 | 0.00 | 96 | 1018.0 |
| 20260906074616 | 70 | 104 | 7.0 | 11.0 | 0.00 | 0.00 | 0.00 | 95 | 1018.4 |
| 20260906073102 | 70 | 73 | 7.0 | 12.0 | 0.00 | 0.00 | 0.00 | 95 | 1018.6 |
| 20260906071605 | 70 | 64 | 5.0 | 11.0 | 0.00 | 0.00 | 0.00 | 95 | 1018.8 |
| 20260906070100 | 71 | 74 | 6.0 | 12.0 | 0.00 | 0.00 | 0.00 | 94 | 1018.8 |
| 20260906064603 | 71 | 57 | 7.0 | 12.0 | 0.00 | 0.00 | 0.00 | 94 | 1018.9 |
| 20260906063103 | 71 | 61 | 6.0 | 12.0 | 0.00 | 0.00 | 0.00 | 94 | 1018.7 |
| 20260906061610 | 71 | 43 | 4.0 | 10.0 | 0.00 | 0.00 | 0.00 | 94 | 1019.0 |
| 20260906060112 | 71 | 56 | 6.0 | 11.0 | 0.00 | 0.00 | 0.00 | 94 | 1018.7 |
| 20260906054605 | 71 | 80 | 5.0 | 8.0 | 0.00 | 0.00 | 0.00 | 94 | 1018.6 |
| 20260906053102 | 72 | 58 | 3.0 | 7.0 | 0.00 | 0.00 | 0.00 | 94 | 1018.9 |
| 20260906051606 | 72 | 51 | 3.0 | 7.0 | 0.00 | 0.00 | 0.00 | 94 | 1018.5 |
| 20260906050113 | 72 | 54 | 4.0 | 7.0 | 0.00 | 0.00 | 0.00 | 94 | 1018.4 |
| 20260906044602 | 72 | 23 | 2.0 | 9.0 | 0.00 | 0.00 | 0.00 | 93 | 1018.6 |
| 20260906043102 | 72 | 55 | 0.0 | 4.0 | 0.00 | 0.00 | 0.00 | 93 | 1018.6 |
| 20260906041608 | 72 | 55 | 2.0 | 7.0 | 0.00 | 0.00 | 0.00 | 93 | 1018.4 |
| 20260906040107 | 72 | 38 | 2.0 | 6.0 | 0.00 | 0.00 | 0.00 | 93 | 1018.3 |
| 20260906034606 | 73 | 25 | 2.0 | 5.0 | 0.00 | 0.00 | 0.00 | 92 | 1018.2 |
| 20260906033105 | 73 | 24 | 2.0 | 4.0 | 0.00 | 0.00 | 0.00 | 93 | 1018.2 |
| 20260906031607 | 73 | 24 | 1.0 | 2.0 | 0.00 | 0.00 | 0.00 | 92 | 1018.1 |
| 20260906030106 | 73 | 24 | 1.0 | 4.0 | 0.00 | 0.00 | 0.00 | 92 | 1018.1 |
| 20260906024604 | 73 | 24 | 2.0 | 5.0 | 0.00 | 0.00 | 0.00 | 92 | 1018.0 |
| 20260906023105 | 74 | 24 | 3.0 | 6.0 | 0.00 | 0.00 | 0.00 | 92 | 1017.9 |
| 20260906021608 | 74 | 103 | 1.0 | 4.0 | 0.00 | 0.00 | 0.00 | 92 | 1017.6 |
| 20260906020106 | 74 | 103 | 2.0 | 4.0 | 0.00 | 0.00 | 0.00 | 91 | 1017.2 |
| 20260906014607 | 75 | 104 | 1.0 | 6.0 | 0.00 | 0.00 | 0.00 | 90 | 1017.0 |
| 20260906013104 | 75 | 104 | 2.0 | 6.0 | 0.00 | 0.00 | 0.00 | 89 | 1016.6 |
| 20260906011606 | 76 | 103 | 1.0 | 7.0 | 0.00 | 0.00 | 0.00 | 89 | 1016.6 |
| 20260906010106 | 76 | 101 | 3.0 | 10.0 | 0.00 | 0.00 | 0.00 | 88 | 1016.6 |
| 20260906004608 | 77 | 80 | 7.0 | 13.0 | 0.00 | 0.00 | 0.00 | 88 | 1016.6 |
| 20260906003108 | 77 | 83 | 9.0 | 14.0 | 0.00 | 0.00 | 0.00 | 87 | 1016.5 |
| 20260906001610 | 78 | 78 | 4.0 | 9.0 | 0.00 | 0.00 | 0.00 | 86 | 1016.4 |
| 20260906000104 | 79 | 63 | 4.0 | 9.0 | 0.00 | 0.00 | 0.00 | 85 | 1016.4 |
| 20260905234601 | 79 | 63 | 8.0 | 14.0 | 0.00 | 0.00 | 0.00 | 84 | 1016.3 |
| 20260905233107 | 80 | 93 | 9.0 | 16.0 | 0.00 | 0.00 | 0.00 | 83 | 1016.2 |
| 20260905231604 | 81 | 79 | 9.0 | 15.0 | 0.00 | 0.00 | 0.00 | 81 | 1016.4 |
| 20260905230108 | 81 | 66 | 10.0 | 16.0 | 0.00 | 0.00 | 0.00 | 80 | 1016.4 |
| 20260905224609 | 81 | 58 | 12.0 | 17.0 | 0.00 | 0.00 | 0.00 | 81 | 1016.1 |
| 20260905223107 | 81 | 72 | 10.0 | 16.0 | 0.00 | 0.00 | 0.00 | 82 | 1016.2 |
| 20260905221608 | 82 | 53 | 8.0 | 17.0 | 0.00 | 0.00 | 0.00 | 80 | 1016.4 |
| 20260905220110 | 81 | 62 | 8.0 | 16.0 | 0.00 | 0.00 | 0.00 | 82 | 1016.3 |
| 20260905214603 | 82 | 57 | 7.0 | 15.0 | 0.00 | 0.00 | 0.00 | 80 | 1016.3 |
| 20260905213107 | 82 | 5 | 7.0 | 15.0 | 0.00 | 0.00 | 0.00 | 81 | 1016.4 |
| 20260905211630 | 83 | 55 | 8.0 | 15.0 | 0.00 | 0.00 | 0.00 | 81 | 1016.4 |
| 20260905210124 | 82 | 34 | 9.0 | 15.0 | 0.00 | 0.00 | 0.00 | 82 | 1016.6 |
| 20260905204608 | 83 | 51 | 9.0 | 14.0 | 0.00 | 0.00 | 0.00 | 82 | 1016.6 |
| 20260905203118 | 84 | 36 | 8.0 | 14.0 | 0.00 | 0.00 | 0.00 | 83 | 1016.5 |
| 20260905201607 | 85 | 43 | 8.0 | 16.0 | 0.00 | 0.00 | 0.00 | 80 | 1016.4 |
| 20260905200104 | 86 | 47 | 6.0 | 16.0 | 0.00 | 0.00 | 0.00 | 81 | 1016.3 |
| 20260905194605 | 86 | 25 | 5.0 | 15.0 | 0.00 | 0.00 | 0.00 | 78 | 1016.6 |
| 20260905193100 | 86 | 54 | 5.0 | 13.0 | 0.00 | 0.00 | 0.00 | 81 | 1016.7 |
| 20260905191607 | 85 | 52 | 5.0 | 13.0 | 0.00 | 0.00 | 0.00 | 81 | 1017.1 |
| 20260905190107 | 86 | 32 | 5.0 | 13.0 | 0.00 | 0.00 | 0.00 | 80 | 1017.0 |
| 20260905184607 | 87 | 39 | 5.0 | 12.0 | 0.00 | 0.00 | 0.00 | 80 | 1016.9 |
| 20260905183103 | 86 | 24 | 5.0 | 12.0 | 0.00 | 0.00 | 0.00 | 80 | 1016.9 |
| 20260905181613 | 86 | 24 | 6.0 | 14.0 | 0.00 | 0.00 | 0.00 | 80 | 1016.9 |
| 20260905180109 | 85 | 15 | 5.0 | 12.0 | 0.00 | 0.00 | 0.00 | 82 | 1016.9 |
| 20260905174604 | 85 | 60 | 6.0 | 14.0 | 0.00 | 0.00 | 0.00 | 82 | 1016.8 |
| 20260905173103 | 85 | 61 | 9.0 | 15.0 | 0.00 | 0.00 | 0.00 | 81 | 1016.8 |
| 20260905171603 | 85 | 42 | 5.0 | 13.0 | 0.00 | 0.00 | 0.00 | 82 | 1017.0 |